User: anonymous   Login
Location: Biharia
(46.4333°N, 22.8000°E)
Time: 12:43:31
(UTC+00:00)
Language:

Cosmos 2278 - Orbit

View from above orbital plane
View from above orbital plane
View from above satellite
View from above satellite

Ground track
Ground track

The orbit data is extracted from the following two-line orbital elements,

1 23087U 94023A   22022.15916245 -.00000071  00000-0 -12795-4 0  9997
2 23087  71.0528  87.5777 0009068 185.5491 174.5533 14.13839256431943
Epoch (UTC): 22 January 2022 03:49:11
Eccentricity: 0.0009068
inclination: 71.0528°
perigee height: 840 km
apogee height: 853 km
right ascension of ascending node: 87.5777°
argument of perigee: 185.5491°
revolutions per day: 14.13839256
mean anomaly at epoch: 174.5533°
orbit number at epoch: 43194

The dashed part of the orbit path shows where the satellite is in the earth's shadow,  

DLR